[[{"header":{"parameterUnit":"m.s-1","parameterCategory":1,"la1":30.2992,"la2":30.254,"lo1":-89.0895,"lo2":-89.0443,"dy":0.0025,"dx":0.0025,"nx":19,"ny":19,"refTime":"2026-03-19T03:00:00:Z","depth":0,"parameterNumber":2,"parameterNumberName":"U-component_of_WINDS"},"data":[0,0,0,1.8673,1.8675,1.8748,1.8748,1.8844,1.8845,0,0,0,0,0,0,0,0,0,0,0,1.8655,1.8656,1.8673,1.8675,1.8748,1.8748,1.8844,1.8845,0,0,0,0,0,0,0,0,0,0,0,1.8655,1.8656,1.8657,1.8675,1.8748,1.8748,1.8844,1.8788,0,0,0,0,0,0,0,0,0,0,1.8716,1.8704,1.8656,1.8657,1.8676,1.8747,1.8748,1.8785,1.8791,1.8813,0,1.8836,0,1.8842,1.8852,1.8852,0,0,0,1.8672,1.8699,1.8715,1.8657,1.8676,1.8747,1.8714,1.8788,1.8795,1.8822,1.8837,1.8841,1.8844,1.8853,1.8853,1.8992,1.8993,0,0,1.8668,1.8671,1.871,1.872,1.871,1.8712,1.8716,1.8792,1.8809,1.8837,1.8843,1.8845,1.8853,1.8854,1.8992,1.8993,0,0,0,1.8658,1.8668,1.8682,1.8716,1.8729,1.8714,1.8719,1.8806,1.881,1.8844,1.8846,1.8854,1.8855,1.8991,1.8992,1.9032,0,0,0,1.8656,1.8662,1.868,1.8683,1.8728,1.8769,1.8731,1.8805,1.8813,1.8846,1.8854,1.8856,1.899,1.8991,1.9029,1.905,0,0,0,1.8649,1.8662,1.8674,1.8683,1.8714,1.8767,1.8776,1.8806,1.8815,1.8853,1.8857,1.8989,1.8991,1.9026,1.9046,1.9085,0,0,0,1.8643,1.871,1.8674,1.875,1.8714,1.8792,1.8775,1.8834,1.8871,1.8855,1.899,1.8992,1.9025,1.9043,1.9082,1.9117,1.9132,0,0,1.8729,1.8721,1.8765,1.8734,1.882,1.8781,1.8871,1.8903,1.8905,1.8963,1.8966,1.903,1.9045,1.9084,1.9221,1.9233,0,0,0,1.8793,1.8824,1.8846,1.8881,1.8906,1.8928,1.8946,1.8957,1.9005,1.8936,1.9056,1.9065,1.9087,1.9104,1.9114,1.9132,1.9,1.9,1.9,1.8918,1.8914,1.8985,1.899,1.9024,1.9039,1.9065,1.9082,1.9072,1.9099,1.9116,1.92,1.9219,1.9227,1.9245,1.9136,1.9136,1.9136,1.9137,1.9041,1.9083,1.9063,1.9125,1.912,1.9171,1.9187,1.9176,1.9222,1.9188,1.9208,1.9169,1.924,1.9256,1.914,1.9139,1.9139,1.9138,1.9138,1.9121,1.914,1.9152,1.9199,1.9235,1.9237,1.928,1.9275,1.9271,1.929,1.9305,1.9304,1.9301,1.9298,1.9298,1.9299,1.9299,1.9299,1.9299,1.9198,1.921,1.9247,1.9277,1.9296,1.9321,1.9335,1.9353,1.9372,1.9365,1.9365,1.9348,1.9249,1.9222,1.9304,1.9303,1.9302,1.9302,1.9302,1.9321,1.9291,1.9349,1.9368,1.94,1.9434,1.9426,1.9464,1.9478,1.9499,1.9477,1.9406,1.9397,1.9389,1.9366,1.948,1.948,1.948,1.948,1.9386,1.9381,1.9436,1.9466,1.9495,1.9493,1.9554,1.9564,1.957,1.9578,1.9561,1.9532,1.9524,1.952,1.9509,1.9488,1.963,1.963,1.963,1.9459,1.9456,1.951,1.9515,1.9538,1.9558,1.9614,1.9648,1.9649,1.9636,1.9583,1.9577,1.953,1.9516,1.9501,1.9484,1.9445,0,0]},{"header":{"parameterUnit":"m.s-1","parameterCategory":1,"la1":30.2992,"la2":30.254,"lo1":-89.0895,"lo2":-89.0443,"dy":0.0025,"dx":0.0025,"nx":19,"ny":19,"refTime":"2026-03-19T03:00:00:Z","depth":0,"parameterNumber":3,"parameterNumberName":"V-component_of_WINDS"},"data":[0,0,0,5.0016,5.0018,5.009,5.009,5.0197,5.0198,0,0,0,0,0,0,0,0,0,0,0,5.0007,5.0009,5.0016,5.0018,5.009,5.009,5.0197,5.0198,0,0,0,0,0,0,0,0,0,0,0,5.0007,5.0008,5.001,5.0019,5.009,5.009,5.0197,5.0137,0,0,0,0,0,0,0,0,0,0,5.0064,5.0069,5.0008,5.001,5.0019,5.009,5.009,5.0134,5.014,5.0172,0,5.0206,0,5.0204,5.0207,5.0207,0,0,0,5.0009,5.0063,5.0071,5.001,5.002,5.009,5.0055,5.0137,5.0145,5.0182,5.0208,5.0211,5.0206,5.0208,5.0208,5.0427,5.0429,0,0,5.0005,5.0027,5.0066,5.0077,5.007,5.0053,5.0057,5.0142,5.0171,5.0208,5.0213,5.0208,5.0209,5.0209,5.0426,5.0428,0,0,0,5.0,5.0024,5.003,5.0073,5.0085,5.0055,5.006,5.0167,5.0167,5.0214,5.0209,5.0209,5.0211,5.0424,5.0427,5.0519,0,0,0,4.9997,5.0021,5.0029,5.0043,5.0084,5.0127,5.0084,5.0161,5.017,5.0209,5.0209,5.0212,5.0423,5.0426,5.0513,5.0558,0,0,0,4.9999,5.0021,5.0036,5.0044,5.0075,5.0125,5.013,5.0162,5.0167,5.0207,5.0212,5.0422,5.0425,5.0508,5.055,5.062,0,0,0,5.0006,5.0118,5.0038,5.0161,5.0075,5.0183,5.0129,5.0209,5.0254,5.021,5.0423,5.0427,5.0506,5.0544,5.0615,5.0682,5.0713,0,0,5.0159,5.0138,5.0208,5.0138,5.0266,5.017,5.0311,5.0332,5.0316,5.039,5.0396,5.0515,5.0549,5.0619,5.0883,5.0907,0,0,0,5.0264,5.0314,5.0344,5.0388,5.0408,5.0426,5.0424,5.0431,5.0493,5.036,5.056,5.058,5.062,5.0651,5.0672,5.0704,5.0443,5.0442,5.0442,5.0511,5.0484,5.0598,5.0579,5.0623,5.0618,5.0649,5.0658,5.0619,5.0666,5.0688,5.0851,5.0889,5.0904,5.0938,5.0723,5.0723,5.0724,5.0724,5.0732,5.0798,5.0741,5.0831,5.0801,5.0875,5.0874,5.0843,5.0906,5.0833,5.0867,5.0789,5.0932,5.096,5.0731,5.073,5.0729,5.0728,5.0728,5.0889,5.0915,5.0923,5.0982,5.103,5.1006,5.1069,5.104,5.1013,5.1046,5.1064,5.1062,5.1054,5.1057,5.1058,5.1058,5.1059,5.1059,5.1059,5.1049,5.1053,5.111,5.1138,5.1161,5.1187,5.1182,5.1203,5.1218,5.1192,5.1192,5.1146,5.0952,5.0903,5.1068,5.1067,5.1065,5.1065,5.1064,5.1278,5.1221,5.1309,5.1332,5.136,5.1408,5.137,5.1415,5.1428,5.1459,5.1405,5.1268,5.1243,5.1226,5.1185,5.1413,5.1413,5.1413,5.1413,5.1409,5.1394,5.1475,5.1513,5.1547,5.152,5.1617,5.1612,5.1599,5.1605,5.1568,5.1511,5.1495,5.1479,5.1457,5.1418,5.17,5.17,5.1701,5.1547,5.1533,5.1622,5.1608,5.1627,5.1644,5.1733,5.1776,5.175,5.1712,5.1608,5.1596,5.1504,5.1476,5.1434,5.14,5.1328,0,0]}]]